Location: Stara Lesna
(49.1528°N, 20.2911°E)
Time: 18:45:27
(UTC+02:00)

AQUA - Pass Details

Date: 13 July 2020
Orbit: 701 x 704 km, 98.2° (Epoch: 11 August)

Event Time Altitude Azimuth Distance (km) Brightness Sun altitude
Rises 02:42:31 0° 14° (NNE) 3,106 8.8 -14.4°
Reaches altitude 10° 02:44:47 10° 15° (NNE) 2,182 7.7 -14.2°
Maximum altitude 02:49:35 85° 104° (ESE) 713 3.8 -13.8°
Enters shadow 02:53:01 19° 193° (SSW) 1,641 5.1 -13.5°
